GFSNIL_prec_precacc12_204.txt.gz
Total_Precipitation_Accumulation
0.84 0.61 0.17 0.04 0.01 0.00 0.00 0.00 0.00 0.00 0.00 0.00 0.00 0.00 0.00 0.00 0.00 0.00 0.00 0.00 0.00 0.00
0.35 0.37 0.24 0.20 0.20 0.15 0.07 0.02 0.01 0.00 0.00 0.00 0.00 0.00 0.00 0.00 0.00 0.00 0.00 0.00 0.00 0.00
0.44 0.41 0.33 0.28 0.30 0.30 0.28 0.22 0.15 0.09 0.06 0.06 0.04 0.03 0.02 0.02 0.01 0.00 0.00 0.00 0.00 0.00
0.16 0.35 0.52 0.54 0.48 0.34 0.26 0.29 0.29 0.21 0.14 0.10 0.09 0.07 0.04 0.02 0.01 0.00 0.00 0.00 0.00 0.00
0.10 0.12 0.24 0.34 0.40 0.35 0.23 0.14 0.11 0.11 0.10 0.06 0.03 0.02 0.01 0.00 0.00 0.00 0.00 0.00 0.00 0.00
0.09 0.15 0.19 0.15 0.15 0.15 0.13 0.10 0.05 0.04 0.04 0.02 0.01 0.00 0.00 0.00 0.00 0.00 0.00 0.00 0.00 0.00
0.12 0.05 0.15 0.20 0.12 0.05 0.04 0.02 0.00 0.00 0.00 0.00 0.00 0.00 0.00 0.00 0.00 0.00 0.00 0.00 0.00 0.00
0.24 0.15 0.06 0.09 0.13 0.09 0.04 0.02 0.01 0.00 0.00 0.00 0.00 0.00 0.00 0.00 0.00 0.00 0.00 0.00 0.00 0.00
0.36 0.33 0.17 0.15 0.17 0.10 0.07 0.02 0.00 0.00 0.00 0.00 0.00 0.00 0.00 0.00 0.00 0.00 0.00 0.00 0.00 0.00
0.69 0.55 0.37 0.26 0.20 0.13 0.05 0.01 0.00 0.00 0.00 0.00 0.00 0.00 0.00 0.00 0.00 0.00 0.00 0.00 0.00 0.00
0.73 0.59 0.51 0.22 0.11 0.04 0.00 0.00 0.00 0.00 0.00 0.00 0.00 0.00 0.00 0.00 0.00 0.00 0.00 0.00 0.00 0.00
0.40 0.32 0.19 0.06 0.01 0.00 0.00 0.00 0.00 0.00 0.00 0.00 0.00 0.00 0.00 0.00 0.00 0.00 0.00 0.00 0.00 0.00
0.11 0.10 0.05 0.01 0.00 0.00 0.00 0.00 0.00 0.00 0.00 0.00 0.00 0.00 0.00 0.00 0.00 0.00 0.00 0.00 0.00 0.00
0.00 0.00 0.00 0.00 0.00 0.00 0.00 0.00 0.00 0.00 0.00 0.00 0.00 0.00 0.00 0.00 0.00 0.00 0.00 0.00 0.00 0.00

GFSNIL_prec_precacc12_207.txt.gz
Total_Precipitation_Accumulation
0.86 0.62 0.17 0.04 0.02 0.01 0.01 0.00 0.00 0.00 0.00 0.00 0.00 0.00 0.00 0.00 0.00 0.00 0.00 0.00 0.00 0.00
0.35 0.35 0.23 0.14 0.08 0.05 0.03 0.02 0.00 0.00 0.00 0.00 0.00 0.00 0.00 0.00 0.00 0.00 0.00 0.00 0.00 0.00
0.25 0.20 0.14 0.11 0.15 0.19 0.20 0.19 0.15 0.09 0.06 0.06 0.04 0.03 0.02 0.02 0.01 0.00 0.00 0.00 0.00 0.00
0.12 0.17 0.28 0.33 0.38 0.32 0.26 0.29 0.29 0.21 0.14 0.10 0.09 0.08 0.05 0.04 0.02 0.01 0.00 0.00 0.00 0.00
0.12 0.10 0.20 0.34 0.45 0.35 0.23 0.14 0.11 0.11 0.10 0.06 0.04 0.03 0.03 0.01 0.00 0.00 0.00 0.00 0.00 0.00
0.22 0.16 0.18 0.16 0.18 0.15 0.13 0.10 0.05 0.04 0.05 0.04 0.04 0.04 0.02 0.00 0.00 0.00 0.00 0.00 0.00 0.00
0.18 0.11 0.20 0.22 0.16 0.07 0.04 0.03 0.02 0.04 0.05 0.05 0.03 0.01 0.00 0.00 0.00 0.00 0.00 0.00 0.00 0.00
0.23 0.21 0.12 0.15 0.25 0.20 0.11 0.07 0.08 0.06 0.04 0.02 0.00 0.00 0.00 0.00 0.00 0.00 0.00 0.00 0.00 0.00
0.38 0.40 0.21 0.24 0.33 0.25 0.25 0.13 0.07 0.03 0.01 0.00 0.00 0.00 0.00 0.00 0.00 0.00 0.00 0.00 0.00 0.00
0.92 0.89 0.53 0.34 0.47 0.41 0.20 0.08 0.02 0.00 0.00 0.00 0.00 0.00 0.00 0.00 0.00 0.00 0.00 0.00 0.00 0.00
1.15 1.08 0.87 0.47 0.32 0.20 0.08 0.03 0.01 0.00 0.00 0.00 0.00 0.00 0.00 0.00 0.00 0.00 0.00 0.00 0.00 0.00
0.67 0.50 0.52 0.29 0.10 0.05 0.02 0.00 0.00 0.00 0.00 0.00 0.00 0.00 0.00 0.00 0.00 0.00 0.00 0.00 0.00 0.00
0.34 0.31 0.21 0.12 0.04 0.01 0.00 0.00 0.00 0.00 0.00 0.00 0.00 0.00 0.00 0.00 0.00 0.00 0.00 0.00 0.00 0.00
0.11 0.10 0.09 0.05 0.01 0.00 0.00 0.00 0.00 0.00 0.00 0.00 0.00 0.00 0.00 0.00 0.00 0.00 0.00 0.00 0.00 0.00

GFSNIL_prec_precacc12_210.txt.gz
Total_Precipitation_Accumulation
0.66 0.56 0.23 0.10 0.02 0.00 0.00 0.00 0.00 0.00 0.00 0.00 0.00 0.00 0.00 0.00 0.00 0.00 0.00 0.00 0.00 0.00
0.20 0.26 0.17 0.15 0.10 0.02 0.01 0.01 0.00 0.00 0.00 0.00 0.00 0.00 0.00 0.00 0.00 0.00 0.00 0.00 0.00 0.00
0.22 0.17 0.10 0.07 0.08 0.08 0.10 0.09 0.09 0.06 0.06 0.06 0.04 0.03 0.02 0.02 0.01 0.00 0.00 0.00 0.00 0.00
0.14 0.17 0.22 0.10 0.13 0.14 0.17 0.23 0.25 0.20 0.14 0.10 0.09 0.08 0.05 0.04 0.02 0.01 0.00 0.00 0.00 0.00
0.20 0.17 0.16 0.11 0.15 0.14 0.13 0.09 0.09 0.10 0.10 0.06 0.04 0.03 0.04 0.02 0.02 0.02 0.01 0.00 0.00 0.00
0.55 0.18 0.16 0.09 0.08 0.09 0.10 0.08 0.05 0.04 0.05 0.04 0.04 0.05 0.04 0.02 0.00 0.00 0.00 0.00 0.00 0.00
0.51 0.35 0.21 0.12 0.17 0.08 0.04 0.03 0.02 0.04 0.05 0.05 0.04 0.02 0.01 0.00 0.00 0.00 0.00 0.00 0.00 0.00
0.25 0.31 0.50 0.25 0.33 0.25 0.15 0.09 0.09 0.08 0.06 0.04 0.02 0.01 0.00 0.00 0.00 0.00 0.00 0.00 0.00 0.00
0.35 0.41 0.44 0.43 0.62 0.41 0.46 0.30 0.16 0.13 0.08 0.03 0.00 0.00 0.00 0.00 0.00 0.00 0.00 0.00 0.00 0.00
0.86 0.90 0.74 0.57 0.78 0.76 0.44 0.27 0.12 0.06 0.03 0.00 0.00 0.00 0.00 0.00 0.00 0.00 0.00 0.00 0.00 0.00
1.45 1.37 1.26 0.72 0.52 0.45 0.20 0.10 0.05 0.02 0.00 0.00 0.00 0.00 0.00 0.00 0.00 0.00 0.00 0.00 0.00 0.00
0.84 0.81 0.90 0.51 0.20 0.10 0.10 0.07 0.02 0.00 0.00 0.00 0.00 0.00 0.00 0.00 0.00 0.00 0.00 0.00 0.00 0.00
0.44 0.44 0.33 0.23 0.12 0.06 0.03 0.02 0.00 0.00 0.00 0.00 0.00 0.00 0.00 0.00 0.00 0.00 0.00 0.00 0.00 0.00
0.23 0.19 0.16 0.16 0.12 0.04 0.01 0.00 0.00 0.00 0.00 0.00 0.00 0.00 0.00 0.00 0.00 0.00 0.00 0.00 0.00 0.00

GFSNIL_prec_precacc12_213.txt.gz
Total_Precipitation_Accumulation
0.31 0.36 0.19 0.13 0.06 0.02 0.01 0.00 0.00 0.00 0.00 0.00 0.00 0.00 0.00 0.00 0.00 0.00 0.00 0.00 0.00 0.00
0.18 0.27 0.19 0.17 0.20 0.12 0.02 0.00 0.00 0.00 0.00 0.00 0.00 0.00 0.00 0.00 0.00 0.00 0.00 0.00 0.00 0.00
0.22 0.20 0.17 0.19 0.12 0.18 0.20 0.04 0.01 0.00 0.00 0.00 0.00 0.00 0.01 0.01 0.01 0.00 0.00 0.00 0.00 0.00
0.17 0.22 0.31 0.27 0.29 0.12 0.12 0.12 0.01 0.02 0.02 0.02 0.03 0.05 0.04 0.04 0.02 0.01 0.00 0.00 0.00 0.00
0.24 0.21 0.33 0.41 0.26 0.12 0.06 0.03 0.01 0.01 0.02 0.03 0.04 0.03 0.04 0.02 0.02 0.02 0.01 0.00 0.00 0.00
0.62 0.32 0.39 0.36 0.24 0.05 0.06 0.03 0.01 0.01 0.03 0.03 0.04 0.05 0.04 0.02 0.01 0.00 0.00 0.00 0.00 0.00
0.65 0.52 0.50 0.30 0.32 0.12 0.03 0.03 0.03 0.04 0.05 0.05 0.04 0.02 0.02 0.02 0.03 0.03 0.02 0.01 0.00 0.00
0.54 0.48 0.72 0.42 0.42 0.30 0.18 0.10 0.09 0.08 0.06 0.04 0.04 0.05 0.07 0.05 0.04 0.02 0.00 0.00 0.00 0.00
0.37 0.49 0.65 0.66 0.77 0.50 0.55 0.37 0.22 0.18 0.12 0.07 0.08 0.10 0.06 0.03 0.01 0.00 0.00 0.00 0.00 0.00
0.58 0.78 0.88 0.88 1.08 0.97 0.61 0.43 0.27 0.20 0.17 0.12 0.07 0.04 0.01 0.00 0.00 0.00 0.00 0.00 0.00 0.00
1.22 1.25 1.36 0.92 0.78 0.75 0.38 0.24 0.20 0.16 0.11 0.06 0.02 0.00 0.00 0.00 0.00 0.00 0.00 0.00 0.00 0.00
0.81 0.81 1.02 0.68 0.33 0.21 0.23 0.21 0.17 0.09 0.02 0.00 0.00 0.00 0.00 0.00 0.00 0.00 0.00 0.00 0.00 0.00
0.48 0.49 0.39 0.31 0.17 0.11 0.12 0.12 0.06 0.02 0.00 0.00 0.00 0.00 0.00 0.00 0.00 0.00 0.00 0.00 0.00 0.00
0.27 0.26 0.20 0.20 0.24 0.16 0.07 0.04 0.01 0.00 0.00 0.00 0.00 0.00 0.00 0.00 0.00 0.00 0.00 0.00 0.00 0.00